Weather History for Fayetteville, NC

Change the Weather History Date:

Friday, February 8, 2013

  Actual Average Record
Temperature  
Mean Temperature 53 °F 46 °F  
Max Temperature 61 °F 58 °F 79 °F (1937)
Min Temperature 44 °F 35 °F 13 °F (1977)
Degree Days  
Heating Degree Days 12 19  
Month to date heating degree days 161 156  
Since 1 July heating degree days 1710 1882  
Cooling Degree Days 0 0  
Month to date cooling degree days 0 0  
Year to date cooling degree days 5 2  
Growing Degree Days 2 (Base 50)    
Moisture  
Dew Point 42 °F    
Average Humidity 70    
Maximum Humidity 93    
Minimum Humidity 46    
Precipitation  
Precipitation 0.72 in 0.09 in 1.42 in (1965)
Month to date precipitation 1.21 0.71  
Year to date precipitation 3.01 4.01  
Sea Level Pressure  
Sea Level Pressure 29.84 in    
Wind  
Wind Speed 12 mph (NW)    
Max Wind Speed 24 mph    
Max Gust Speed 33 mph    
Visibility 9 miles    
Events Rain    
T = Trace of Precipitation, MM = Missing Value Source: NWS Daily Summary

Daily Weather History Graph

Daily Weather History Graph

Search for Another Location

Airport:

Trip Planner

Search our weather history database for the weather conditions in past years. The results will help you decide how hot, cold, wet, or windy it might be!

Date:

Astronomy

Feb. 08, 2013 Rise Set
Actual Time 7:08 AM EST 5:51 PM EST
Civil Twilight 6:42 AM EST 6:17 PM EST
Nautical Twilight 6:12 AM EST 6:47 PM EST
Astronomical Twilight 5:42 AM EST 7:17 PM EST
Moon 5:33 AM EST (2/8) 4:24 PM EST (2/8)
Length of Visible Light 11h 35m
Length of Day
10h 43m
Waning Crescent, 3% of the Moon is Illuminated
Feb 8
Waning Crescent
Feb 10
New
Feb 17
First Quarter
Feb 25
Full
Mar 4
Last Quarter

Hourly Weather History & Observations

Time (EST) Temp. Windchill Dew Point Humidity Pressure Visibility Wind Dir Wind Speed Gust Speed Precip Events Conditions
12:53 AM 48.9 °F - 46.9 °F 93% 29.80 in 3.0 mi NNE 20.7 mph 25.3 mph 0.19 in Rain Rain
1:53 AM 48.0 °F - 46.0 °F 93% 29.80 in 3.0 mi North 17.3 mph 23.0 mph 0.31 in Rain Rain
2:38 AM 46.4 °F 38.5 °F 44.6 °F 93% 29.74 in 5.0 mi NNE 21.9 mph 33.4 mph 0.20 in Rain Light Rain
2:49 AM 46.4 °F 39.2 °F 44.6 °F 93% 29.76 in 6.0 mi North 18.4 mph 25.3 mph 0.22 in Rain Light Rain
2:53 AM 46.9 °F - 45.0 °F 93% 29.74 in 7.0 mi NNE 23.0 mph 29.9 mph 0.22 in Rain Light Rain
3:53 AM 46.9 °F - 44.1 °F 90% 29.73 in 10.0 mi North 17.3 mph 27.6 mph 0.00 in   Overcast
4:29 AM 46.4 °F 39.2 °F 44.6 °F 93% 29.75 in 10.0 mi North 18.4 mph 26.5 mph N/A   Overcast
4:53 AM 46.9 °F - 44.1 °F 90% 29.75 in 9.0 mi North 15.0 mph 25.3 mph N/A   Overcast
5:53 AM 46.0 °F 39.6 °F 44.1 °F 93% 29.76 in 9.0 mi NNW 15.0 mph 24.2 mph 0.02 in   Overcast
6:12 AM 46.4 °F 39.5 °F 44.6 °F 93% 29.78 in 8.0 mi North 17.3 mph 28.8 mph N/A   Overcast
6:20 AM 46.4 °F 39.8 °F 44.6 °F 93% 29.78 in 8.0 mi North 16.1 mph 24.2 mph N/A   Overcast
6:53 AM 46.0 °F 39.6 °F 43.0 °F 89% 29.79 in 10.0 mi NNW 15.0 mph 21.9 mph N/A   Overcast
7:53 AM 46.0 °F 40.6 °F 42.1 °F 86% 29.81 in 10.0 mi NNW 11.5 mph - N/A   Overcast
8:20 AM 46.4 °F 39.8 °F 42.8 °F 87% 29.82 in 10.0 mi NNW 16.1 mph 21.9 mph N/A   Mostly Cloudy
8:53 AM 45.0 °F 39.7 °F 42.1 °F 90% 29.82 in 10.0 mi NW 10.4 mph 23.0 mph N/A   Mostly Cloudy
9:09 AM 44.6 °F 38.8 °F 39.2 °F 81% 29.85 in 10.0 mi NW 11.5 mph - N/A   Overcast
9:53 AM 44.1 °F 38.1 °F 39.9 °F 85% 29.86 in 10.0 mi WNW 11.5 mph - N/A   Overcast
10:53 AM 45.0 °F 38.5 °F 39.0 °F 80% 29.88 in 10.0 mi WNW 13.8 mph - N/A   Overcast
11:53 AM 46.9 °F - 39.9 °F 77% 29.88 in 10.0 mi WNW 9.2 mph - N/A   Overcast
12:32 PM 50.0 °F - 41.0 °F 71% 29.86 in 10.0 mi NW 8.1 mph - N/A   Scattered Clouds
12:53 PM 52.0 °F - 42.1 °F 69% 29.85 in 10.0 mi WNW 8.1 mph - N/A   Scattered Clouds
1:53 PM 57.0 °F - 43.0 °F 59% 29.84 in 10.0 mi West 8.1 mph - N/A   Clear
2:53 PM 59.0 °F - 43.0 °F 55% 29.82 in 10.0 mi West 12.7 mph 20.7 mph N/A   Mostly Cloudy
3:53 PM 60.1 °F - 43.0 °F 53% 29.83 in 10.0 mi West 13.8 mph - N/A   Scattered Clouds
4:53 PM 57.9 °F - 43.0 °F 58% 29.85 in 10.0 mi WNW 10.4 mph - N/A   Mostly Cloudy
5:53 PM 55.0 °F - 44.1 °F 67% 29.86 in 10.0 mi West 4.6 mph - N/A   Clear
6:53 PM 51.1 °F - 44.1 °F 77% 29.88 in 10.0 mi WSW 4.6 mph - N/A   Clear
7:53 PM 51.1 °F - 44.1 °F 77% 29.91 in 10.0 mi West 8.1 mph - N/A   Clear
8:53 PM 53.1 °F - 37.0 °F 55% 29.94 in 10.0 mi WNW 10.4 mph - N/A   Clear
9:53 PM 50.0 °F - 30.9 °F 48% 29.99 in 10.0 mi NW 12.7 mph - N/A   Clear
10:53 PM 46.9 °F - 28.0 °F 48% 30.03 in 10.0 mi NNW 11.5 mph - N/A   Clear
11:53 PM 45.0 °F 40.1 °F 27.0 °F 49% 30.06 in 10.0 mi NW 9.2 mph - N/A   Clear